Temp
62 62 62 61 62 61 61 61 61 60 59 59 59 58 58 58 57 55 54 55 54 54 54 53 53 55 55 54 54 54 52 50 46 52 53 55 53 53 55 55 54 55 56
61 62 62 60 61 59 59 59 59 59 59 60 59 59 59 58 57 56 56 57 55 54 55 54 54 57 54 54 53 51 50 51 47 47 51 51 50 52 52 51 52 55 55
62 62 61 61 59 59 58 59 60 60 59 59 59 59 59 59 58 57 56 56 55 54 54 54 54 53 52 50 49 48 48 49 48 46 47 50 51 53 50 49 50 52 54
61 61 60 59 59 59 59 59 58 58 58 58 59 59 59 59 59 58 58 56 55 55 54 55 54 52 51 50 49 48 50 48 48 45 45 45 47 50 49 44 46 49 48
61 59 59 58 59 58 58 57 58 58 59 59 59 59 58 58 60 57 56 55 53 53 52 52 52 52 55 53 51 49 47 46 45 44 44 44 44 44 44 45 44 46 47
60 59 58 58 59 59 58 58 58 58 58 58 57 57 57 57 49 50 52 52 51 49 48 48 49 50 50 49 48 48 47 43 42 42 43 42 43 44 46 44 43 42 41
60 60 60 60 60 59 59 58 58 58 57 55 55 55 51 50 47 48 49 48 47 46 46 46 47 49 47 45 45 46 46 47 46 43 41 41 42 44 44 42 43 42 42
60 61 61 61 61 60 59 58 57 56 54 54 52 50 48 48 46 45 46 46 46 45 46 45 45 45 45 44 44 44 44 45 44 44 43 43 44 44 44 44 43 43 45
60 61 62 62 61 60 59 58 56 54 53 50 48 46 45 44 44 44 44 45 45 44 44 46 45 44 43 43 42 42 42 43 46 46 46 46 45 44 45 44 42 41 41
62 62 62 62 61 59 58 56 54 53 51 48 46 45 45 43 43 43 44 45 42 42 44 45 45 43 42 42 41 40 38 40 41 43 43 44 45 45 46 45 43 41 41
62 62 60 60 59 58 55 54 52 50 46 44 43 43 43 43 43 42 42 43 41 41 42 43 43 42 41 41 41 40 39 41 42 41 41 43 43 44 44 45 45 43 41
60 59 59 58 59 56 52 52 50 48 43 42 43 43 43 42 42 42 42 41 43 40 40 41 42 40 40 40 41 41 40 41 40 40 40 41 40 41 43 44 45 45 45
59 58 57 54 53 51 51 49 46 45 44 43 43 42 41 42 43 42 41 41 42 41 42 42 41 40 40 40 40 41 40 39 38 39 39 39 41 43 44 43 44 46 48
57 56 54 50 46 46 47 47 45 44 43 43 43 40 39 42 41 41 41 41 41 41 41 40 40 39 39 39 38 39 38 39 37 37 39 41 43 41 41 43 43 42 43
55 55 52 48 45 42 42 43 43 42 43 41 39 39 39 39 39 39 38 38 39 39 39 39 37 37 36 36 36 38 38 38 37 37 39 40 39 39 40 42 43 43 44
54 53 49 45 45 44 42 40 40 40 39 39 39 40 42 39 39 39 38 38 38 38 38 36 35 35 34 34 35 35 37 37 37 39 40 39 37 38 39 42 43 43 44
53 51 49 46 45 43 42 42 40 40 40 39 39 39 39 38 39 38 38 38 38 38 37 36 35 35 34 35 35 35 35 37 39 40 39 37 38 39 40 41 42 43 44
50 47 47 46 45 44 43 43 43 42 40 41 41 40 39 39 38 38 38 39 38 38 37 35 35 35 35 35 35 36 36 37 38 38 38 39 39 41 43 41 42 43 44
50 48 46 47 45 44 44 44 43 41 41 41 41 41 40 39 39 39 39 39 37 37 37 36 36 36 36 36 37 37 37 37 37 39 39 40 42 43 42 42 43 39 42
49 44 45 47 46 45 44 43 41 40 41 41 39 38 39 40 39 39 39 39 38 37 37 37 37 37 37 37 37 37 38 38 39 39 40 42 43 42 42 44 45 44 44
49 47 40 46 45 44 43 41 41 41 41 40 39 37 33 39 38 38 39 39 38 38 38 38 37 37 38 38 37 37 38 39 39 39 40 40 42 43 45 45 45 45 45
49 48 47 45 44 43 42 42 42 42 41 40 39 39 34 40 39 39 39 39 40 39 39 38 38 38 38 38 37 37 37 38 39 39 41 43 44 46 46 45 45 45 45
48 47 45 44 43 39 42 42 43 42 41 39 39 38 38 38 38 39 39 40 40 41 41 40 39 40 40 40 40 39 38 38 39 41 43 44 45 45 45 45 45 45 45
48 47 45 43 43 43 42 41 42 39 41 39 38 38 38 38 38 39 39 40 41 42 43 42 42 42 42 42 41 41 40 38 41 43 45 48 48 48 48 48 47 48 46
48 46 44 43 43 43 43 42 42 41 40 38 38 37 38 38 38 39 39 40 41 42 42 42 43 44 43 42 44 42 36 34 41 39 50 50 48 48 49 48 47 47 47
47 45 44 44 43 43 43 43 42 41 39 38 38 37 37 38 38 39 39 40 41 41 42 42 44 43 42 43 42 36 34 35 41 36 51 50 49 48 48 48 48 46 46
MSLP
1010.50 1012.53 1013.71 1012.39 1011.02 1011.39 1011.10 1011.02 1010.98 1011.02 1011.50 1012.18 1012.59 1012.84 1013.49 1013.71 1013.72 1013.72 1013.76 1013.85 1014.03 1013.87 1013.75 1013.67 1013.40 1013.13 1012.89 1012.80 1012.60 1012.65 1012.59 1012.70 1012.50 1011.68 1011.57 1011.28 1011.21 1011.27 1011.02 1010.67 1010.60 1010.39 1010.15
1008.56 1007.80 1010.95 1012.92 1012.04 1010.35 1012.02 1012.07 1012.15 1012.15 1012.15 1012.47 1013.03 1012.87 1013.13 1013.19 1013.22 1013.40 1013.39 1013.46 1013.56 1013.36 1013.05 1013.13 1012.76 1012.53 1012.48 1012.17 1012.15 1012.06 1012.01 1011.90 1012.07 1011.46 1011.17 1010.92 1010.91 1010.89 1010.60 1010.39 1010.20 1009.92 1009.77
1008.46 1008.26 1008.63 1009.43 1011.10 1011.21 1011.51 1012.18 1012.36 1012.81 1012.68 1012.76 1012.55 1012.77 1013.02 1013.15 1013.09 1013.23 1013.22 1013.19 1013.20 1012.88 1012.48 1012.42 1012.14 1012.18 1012.16 1012.10 1012.21 1012.07 1011.77 1011.49 1011.34 1011.15 1011.00 1010.76 1010.44 1010.39 1010.17 1010.03 1009.85 1009.58 1009.33
1009.66 1010.00 1009.40 1009.31 1010.68 1010.91 1010.66 1011.77 1012.54 1012.90 1012.70 1012.60 1012.74 1012.96 1013.25 1013.17 1013.17 1013.11 1012.89 1012.71 1012.73 1012.70 1012.54 1012.41 1012.35 1012.39 1012.22 1011.89 1011.80 1011.54 1011.49 1011.22 1010.94 1010.86 1010.42 1010.21 1009.98 1009.85 1009.85 1009.75 1009.38 1009.29 1009.09
1009.36 1009.56 1009.19 1010.50 1010.97 1010.98 1011.36 1011.85 1012.21 1012.69 1012.75 1012.88 1013.02 1013.27 1013.29 1013.17 1012.94 1012.95 1012.79 1012.82 1012.71 1012.59 1012.50 1012.54 1012.50 1012.29 1011.91 1011.80 1011.60 1011.45 1011.30 1010.96 1010.67 1010.27 1009.88 1009.58 1009.42 1009.49 1009.41 1009.31 1009.14 1009.06 1008.94
1010.17 1010.68 1010.52 1011.30 1011.30 1011.72 1011.34 1011.90 1012.04 1012.40 1012.53 1012.74 1013.15 1013.26 1013.36 1013.36 1013.19 1012.86 1012.80 1012.83 1012.99 1013.03 1012.82 1012.69 1012.52 1012.16 1011.90 1011.80 1011.75 1011.52 1011.35 1010.91 1010.53 1010.12 1009.67 1009.20 1009.21 1009.35 1009.43 1009.15 1008.93 1008.92 1008.77
1010.34 1010.61 1011.03 1011.18 1011.58 1011.76 1011.92 1012.16 1012.25 1012.36 1012.61 1012.94 1013.18 1013.30 1013.65 1013.79 1013.65 1013.55 1013.32 1013.28 1013.45 1013.32 1013.11 1013.01 1012.68 1012.31 1012.13 1011.92 1011.65 1011.42 1011.01 1010.76 1010.38 1010.01 1009.69 1009.47 1009.25 1009.19 1009.19 1009.15 1008.97 1008.89 1008.77
1010.82 1010.48 1010.85 1011.06 1011.44 1011.71 1011.97 1012.23 1012.32 1012.52 1012.85 1013.09 1013.54 1013.96 1013.99 1014.03 1014.32 1014.28 1013.94 1013.68 1013.69 1013.49 1013.25 1013.14 1012.83 1012.50 1012.21 1011.85 1011.57 1011.32 1010.84 1010.54 1010.24 1009.82 1009.50 1009.25 1009.08 1008.93 1008.80 1008.78 1008.86 1008.78 1008.71
1010.77 1010.68 1010.79 1010.58 1011.29 1011.60 1011.89 1012.19 1012.52 1012.72 1013.07 1013.61 1014.06 1014.35 1014.43 1014.78 1014.69 1014.61 1014.04 1014.03 1013.79 1013.61 1013.39 1013.10 1012.84 1012.49 1012.29 1011.84 1011.40 1011.23 1010.68 1010.32 1009.91 1009.48 1009.17 1008.93 1008.75 1008.55 1008.44 1008.52 1008.52 1008.57 1008.33
1011.16 1010.98 1010.94 1010.90 1011.39 1011.61 1011.92 1012.36 1012.77 1013.00 1013.64 1013.91 1014.67 1014.98 1014.97 1015.02 1014.94 1014.77 1014.53 1014.38 1014.11 1013.67 1013.33 1013.01 1012.85 1012.57 1012.26 1011.89 1011.47 1011.29 1010.76 1010.36 1009.91 1009.32 1008.97 1008.54 1008.38 1008.22 1008.06 1008.02 1008.26 1008.38 1008.29
1011.29 1011.19 1011.30 1011.36 1011.57 1011.94 1012.27 1012.69 1013.15 1013.36 1013.91 1014.83 1015.10 1015.33 1015.17 1015.24 1015.04 1015.07 1015.06 1014.83 1014.42 1013.90 1013.45 1013.12 1012.84 1012.64 1012.29 1011.99 1011.65 1011.41 1011.00 1010.49 1009.88 1009.51 1008.98 1008.45 1008.32 1008.26 1008.21 1008.28 1008.39 1008.43 1008.29
1011.18 1011.25 1011.43 1011.49 1011.81 1012.29 1012.66 1013.03 1013.38 1013.88 1014.54 1015.07 1015.24 1015.42 1015.38 1015.45 1015.45 1015.56 1015.43 1015.17 1014.62 1014.20 1013.79 1013.34 1012.88 1012.60 1012.35 1012.05 1011.74 1011.40 1010.99 1010.52 1010.00 1009.41 1009.01 1008.90 1008.84 1008.73 1008.62 1008.49 1008.31 1008.18 1008.07
1011.22 1011.57 1011.88 1012.27 1012.67 1012.93 1013.16 1013.63 1013.95 1014.25 1014.89 1015.53 1015.59 1015.60 1015.79 1015.90 1015.90 1015.95 1015.67 1015.11 1014.61 1014.23 1013.89 1013.35 1013.01 1012.74 1012.45 1012.17 1011.87 1011.47 1011.18 1010.85 1010.28 1009.69 1009.55 1009.56 1009.40 1009.11 1008.77 1008.39 1007.99 1007.71 1007.55
1011.65 1011.81 1012.45 1012.80 1013.32 1013.78 1013.96 1014.16 1014.58 1015.27 1015.66 1015.74 1016.00 1016.42 1016.44 1016.21 1016.36 1016.23 1015.67 1015.14 1014.71 1014.33 1013.92 1013.50 1013.22 1012.92 1012.67 1012.52 1012.10 1011.80 1011.59 1011.22 1010.81 1010.45 1010.17 1009.96 1009.61 1009.13 1008.74 1008.42 1007.95 1007.64 1007.31
1011.51 1012.22 1012.77 1013.31 1014.15 1014.50 1014.84 1015.45 1015.57 1016.16 1016.26 1016.49 1016.98 1017.01 1016.82 1016.75 1016.81 1016.50 1015.94 1015.35 1014.86 1014.52 1013.98 1013.61 1013.25 1012.97 1012.81 1012.67 1012.44 1012.13 1011.82 1011.48 1011.22 1010.95 1010.56 1010.20 1009.73 1009.30 1008.83 1008.42 1008.06 1007.64 1007.31
1011.99 1012.72 1013.74 1014.64 1015.02 1015.76 1015.70 1016.33 1016.70 1016.75 1016.88 1017.13 1017.32 1017.30 1017.17 1017.23 1017.00 1016.55 1016.02 1015.43 1014.99 1014.45 1014.07 1013.78 1013.51 1013.34 1013.22 1013.04 1012.76 1012.50 1011.99 1011.71 1011.52 1011.24 1010.88 1010.52 1010.12 1009.56 1009.11 1008.53 1008.15 1007.91 1007.67
1012.36 1013.19 1014.00 1014.84 1015.75 1016.20 1016.42 1016.31 1016.70 1017.21 1017.25 1017.37 1017.52 1017.55 1017.43 1017.38 1017.04 1016.54 1015.97 1015.54 1015.06 1014.57 1014.38 1014.14 1013.93 1013.75 1013.58 1013.36 1013.04 1012.65 1012.26 1011.98 1011.74 1011.37 1011.06 1010.72 1010.32 1009.88 1009.34 1008.96 1008.60 1008.36 1008.25
1013.05 1013.71 1014.00 1015.22 1015.88 1016.65 1016.64 1016.67 1016.77 1016.97 1017.36 1017.66 1017.67 1017.68 1017.55 1017.43 1016.99 1016.55 1016.03 1015.66 1015.24 1014.95 1014.92 1014.74 1014.47 1014.20 1013.94 1013.64 1013.25 1012.85 1012.55 1012.24 1011.91 1011.57 1011.22 1010.86 1010.51 1010.19 1009.64 1009.36 1009.07 1008.91 1008.86
1013.35 1014.15 1014.58 1015.87 1016.22 1016.73 1016.92 1016.92 1017.11 1017.40 1017.66 1017.85 1017.95 1017.94 1017.74 1017.53 1017.05 1016.67 1016.33 1016.00 1015.73 1015.61 1015.50 1015.23 1014.95 1014.63 1014.29 1013.95 1013.54 1013.08 1012.73 1012.37 1011.98 1011.61 1011.30 1010.99 1010.67 1010.32 1009.99 1009.72 1009.63 1009.56 1009.52
1013.93 1014.73 1015.42 1015.88 1016.47 1017.01 1017.18 1017.38 1017.50 1017.61 1017.84 1018.02 1018.33 1018.41 1018.10 1017.65 1017.22 1016.95 1016.65 1016.44 1016.30 1016.15 1015.96 1015.63 1015.30 1014.93 1014.63 1014.23 1013.78 1013.35 1012.82 1012.39 1012.00 1011.72 1011.44 1011.07 1010.69 1010.46 1010.22 1010.09 1010.11 1010.19 1010.33
1014.62 1015.53 1016.09 1016.66 1017.04 1017.39 1017.58 1017.65 1017.69 1017.92 1018.08 1018.34 1018.58 1018.63 1018.39 1017.97 1017.76 1017.44 1017.13 1016.88 1016.72 1016.49 1016.20 1015.89 1015.58 1015.28 1014.88 1014.39 1013.95 1013.54 1013.11 1012.63 1012.27 1011.91 1011.56 1011.17 1010.87 1010.61 1010.56 1010.65 1010.77 1010.85 1010.98
1015.31 1015.96 1016.61 1017.00 1017.34 1017.65 1017.88 1017.90 1018.06 1018.22 1018.47 1018.70 1018.81 1018.75 1018.54 1018.23 1018.10 1017.79 1017.50 1017.16 1016.86 1016.61 1016.36 1016.09 1015.74 1015.37 1015.01 1014.58 1014.19 1013.79 1013.35 1012.91 1012.53 1012.13 1011.74 1011.43 1011.27 1011.17 1011.15 1011.29 1011.45 1011.56 1011.67
1015.61 1016.25 1016.96 1017.42 1017.68 1017.96 1018.11 1018.36 1018.45 1018.63 1018.94 1019.08 1019.12 1018.96 1018.82 1018.70 1018.55 1018.26 1017.89 1017.42 1016.98 1016.58 1016.25 1016.08 1015.86 1015.46 1015.05 1014.52 1014.19 1013.90 1013.63 1013.36 1013.03 1012.51 1012.16 1011.95 1011.86 1011.85 1011.86 1011.96 1012.11 1012.24 1012.34
1016.03 1016.73 1017.31 1017.94 1018.12 1018.33 1018.62 1018.83 1019.01 1019.20 1019.36 1019.46 1019.46 1019.38 1019.23 1019.15 1019.00 1018.69 1018.21 1017.70 1017.22 1016.71 1016.33 1016.10 1015.89 1015.63 1015.17 1014.66 1014.33 1013.99 1013.72 1013.51 1013.06 1012.71 1012.45 1012.39 1012.42 1012.38 1012.46 1012.54 1012.69 1012.84 1013.01
1016.66 1017.23 1018.03 1018.48 1018.65 1018.82 1018.94 1019.31 1019.42 1019.52 1019.64 1019.82 1019.87 1019.84 1019.70 1019.56 1019.37 1018.99 1018.50 1018.05 1017.55 1017.07 1016.61 1016.33 1016.04 1015.70 1015.40 1015.11 1014.65 1014.35 1014.10 1013.68 1013.40 1013.19 1012.88 1012.81 1012.91 1012.99 1013.02 1013.16 1013.22 1013.32 1013.45
1017.20 1018.07 1018.70 1018.90 1019.11 1019.11 1019.39 1019.60 1019.76 1019.90 1020.01 1020.17 1020.31 1020.29 1020.13 1019.91 1019.76 1019.38 1018.92 1018.50 1018.00 1017.54 1017.07 1016.78 1016.38 1016.01 1015.67 1015.37 1015.12 1014.87 1014.46 1014.06 1013.92 1013.78 1013.48 1013.38 1013.44 1013.48 1013.47 1013.50 1013.54 1013.69 1013.85
Wind_Speed
24 23 24 12 9 11 6 5 5 5 6 5 4 5 4 3 3 4 5 4 6 6 6 7 9 7 6 4 4 4 6 4 7 6 4 5 3 6 10 8 6 7 7
15 17 8 13 6 7 3 7 6 3 2 2 3 4 3 4 4 4 4 4 5 6 6 5 8 5 6 7 4 7 6 6 5 10 6 3 4 7 10 7 6 6 7
4 8 12 13 7 4 6 4 2 1 2 3 4 4 3 3 3 3 4 4 5 6 7 6 7 5 7 5 6 6 5 6 5 5 6 3 3 8 7 4 7 6 5
3 3 6 7 6 4 8 5 4 4 4 3 3 3 3 2 2 3 3 4 5 5 5 5 5 5 6 6 5 6 7 6 5 5 5 6 6 6 5 4 5 3 5
4 3 7 6 5 5 5 6 6 4 3 3 2 0 1 2 2 4 4 5 5 6 4 5 4 7 9 9 6 6 7 5 7 8 9 8 3 6 4 2 3 3 5
5 5 7 4 2 2 4 5 5 4 2 1 3 2 4 4 10 7 4 4 6 6 6 6 7 9 9 10 11 12 10 6 7 6 6 5 3 1 5 6 4 2 2
3 5 4 5 4 4 3 3 3 2 1 4 3 5 6 7 12 13 12 6 4 5 6 7 8 7 6 6 9 13 11 13 11 8 6 5 5 4 4 6 4 2 2
2 3 4 5 2 2 3 2 1 3 4 3 5 6 7 8 12 11 10 6 5 6 6 7 7 7 6 9 9 10 9 9 8 6 6 6 6 6 7 5 3 2 4
3 2 3 3 3 3 3 2 2 4 4 5 5 7 8 8 11 12 10 7 8 8 8 6 8 8 11 13 8 9 9 7 8 13 14 13 11 10 9 4 4 2 2
1 3 3 3 3 3 3 5 3 4 4 6 7 6 10 7 11 13 12 7 9 7 8 7 9 10 13 14 6 7 8 9 10 9 8 7 6 4 7 3 2 1 2
2 1 2 3 4 5 4 3 3 5 7 6 7 5 7 8 9 13 13 8 6 6 7 7 7 10 11 11 10 6 8 10 9 6 6 3 2 1 1 2 1 0 1
2 3 4 5 5 5 6 3 5 6 7 6 5 4 5 7 12 10 11 10 11 6 7 6 6 10 10 10 8 12 13 11 6 5 3 4 5 4 3 2 3 3 4
5 4 6 8 7 5 4 5 6 7 6 5 4 5 6 6 7 10 10 12 12 7 6 8 10 9 10 7 12 14 11 6 6 5 5 4 3 5 5 4 4 5 7
3 5 5 6 7 7 6 6 7 6 5 6 6 5 5 6 6 6 7 6 8 7 9 6 8 8 7 8 7 6 5 5 5 5 4 4 5 4 3 3 2 2 2
6 4 6 6 6 7 9 6 7 7 5 5 4 4 5 5 6 9 8 5 5 7 7 3 3 5 5 5 5 5 4 5 5 5 5 6 5 4 4 3 2 2 2
6 5 5 5 3 5 8 9 12 11 11 11 9 7 4 6 9 11 10 11 11 12 3 4 5 5 5 5 5 4 4 5 4 5 4 5 4 5 4 3 2 2 3
6 7 5 6 4 6 5 6 6 3 6 7 7 9 8 7 10 10 11 10 10 9 6 6 5 5 4 4 4 4 4 4 4 4 4 4 4 4 5 4 4 4 5
7 7 6 4 5 4 4 5 4 4 5 6 5 6 9 9 10 11 13 8 6 7 5 6 5 5 5 4 5 4 4 4 4 3 3 4 4 3 4 5 4 4 6
7 7 7 5 6 5 5 5 5 6 6 5 5 5 8 9 9 10 10 6 6 6 5 5 5 5 5 5 5 4 3 3 3 3 3 3 4 4 4 3 5 7 7
7 13 7 7 7 5 5 5 5 6 5 5 4 4 5 5 5 7 6 6 6 5 5 5 5 5 5 5 5 5 5 5 5 4 3 4 3 2 2 5 6 6 6
8 7 8 7 6 6 5 5 5 5 5 5 4 4 5 4 5 5 5 5 5 5 5 4 4 4 4 4 4 5 5 5 5 5 4 3 3 4 5 6 6 6 6
8 8 7 7 6 6 5 5 5 6 6 5 3 3 6 6 5 5 5 5 3 3 2 3 4 4 4 4 4 5 5 6 5 5 4 4 4 5 6 6 7 6 6
9 10 8 7 7 7 6 6 6 6 5 5 3 3 4 4 5 5 6 5 5 4 3 3 4 5 4 4 4 4 4 5 4 4 3 5 5 5 5 6 5 5 5
10 9 9 7 7 7 6 6 5 6 5 5 3 4 4 4 5 6 6 6 5 5 5 4 4 6 6 5 5 5 4 4 3 3 4 5 6 6 6 7 5 6 6
9 9 8 7 7 6 7 6 5 6 5 4 3 3 3 4 5 5 6 6 6 7 8 6 5 7 7 7 8 8 7 6 5 5 5 7 7 7 7 4 4 4 6
10 10 7 6 6 6 6 6 6 5 5 4 3 3 4 4 5 5 5 7 7 7 9 7 9 10 9 6 7 7 6 6 5 6 5 5 5 4 3 4 7 4 5
Wind_Direction
64 36 4 355 21 358 13 18 40 83 110 145 173 145 160 183 192 212 239 258 247 261 252 239 257 245 246 236 225 241 252 223 261 278 257 272 263 285 289 284 283 288 292
111 92 47 302 303 115 9 16 28 31 78 125 142 133 184 214 209 222 249 254 249 256 270 272 262 263 240 246 260 259 255 250 238 272 279 268 259 286 285 277 281 286 289
111 132 183 228 195 144 116 138 207 210 111 154 163 194 208 224 227 240 238 267 258 255 254 261 263 271 282 319 303 282 273 267 242 241 277 273 279 304 281 255 273 286 281
150 191 196 142 157 182 148 148 165 191 187 190 193 206 226 243 277 289 290 276 285 290 298 293 319 315 290 287 284 279 286 281 274 262 255 265 280 288 254 260 272 269 291
27 214 90 107 163 154 148 164 169 182 191 205 195 230 351 307 315 337 327 310 310 310 12 11 1 325 318 308 319 329 319 295 280 270 268 265 259 267 255 265 253 266 288
12 20 83 109 130 192 157 169 137 167 182 145 56 24 360 3 352 12 2 15 40 37 7 344 331 328 336 356 349 337 325 318 309 304 293 247 228 267 297 285 241 231 295
34 109 119 150 174 188 159 118 133 159 79 62 47 45 51 39 35 50 58 61 40 10 354 337 331 340 347 353 332 323 319 318 314 305 295 301 295 295 293 311 286 229 250
282 140 153 148 179 160 122 135 103 72 63 61 48 59 76 56 36 29 31 19 357 359 354 334 337 349 341 346 332 322 323 320 306 307 299 292 284 283 262 242 262 260 277
211 172 203 147 167 140 141 127 79 76 61 59 58 83 75 50 33 21 17 2 2 357 350 348 355 346 335 333 326 319 324 322 323 318 310 298 293 286 262 246 221 227 284
282 233 243 148 157 109 111 89 72 76 86 90 87 74 65 48 28 20 15 356 346 346 350 345 343 352 350 344 345 333 330 326 317 313 319 305 295 307 351 166 143 235 284
275 138 89 138 134 124 102 79 101 96 89 95 91 63 52 34 20 11 1 354 343 343 340 340 339 357 355 351 351 338 338 327 324 323 307 310 343 341 310 84 82 274 292
140 129 126 88 67 71 87 77 65 97 104 93 77 44 34 25 15 359 349 350 350 342 334 321 336 360 350 354 353 354 351 343 324 312 321 38 34 19 4 334 283 254 239
143 102 73 76 68 48 68 85 81 79 84 73 48 24 9 12 9 345 335 346 344 341 329 344 359 356 353 353 2 2 358 349 344 3 37 29 9 353 337 312 292 253 263
104 93 104 83 61 58 71 71 78 80 72 53 33 17 10 14 359 341 346 336 334 341 340 344 355 358 2 356 352 352 352 358 359 354 16 11 0 337 312 322 316 319 292
119 96 80 78 86 83 68 61 82 60 68 69 44 31 16 4 352 346 348 342 350 345 336 325 350 1 2 358 349 343 351 2 11 358 11 11 355 335 336 317 312 315 5
116 84 88 77 104 104 104 95 61 86 81 79 67 44 23 13 357 353 350 355 352 349 349 356 2 1 2 351 350 0 349 1 359 2 10 9 345 339 337 332 332 10 42
93 100 110 111 136 121 126 118 117 80 69 61 51 43 35 14 359 353 2 354 357 353 9 7 2 358 358 355 354 358 344 342 340 14 12 347 337 332 348 1 5 28 63
92 88 107 134 119 129 121 106 95 84 70 44 48 36 16 7 0 3 2 350 7 17 22 10 6 8 8 358 347 349 355 4 14 356 335 331 339 351 8 3 15 44 74
98 85 92 116 113 109 101 87 82 84 75 59 28 12 1 339 356 5 6 18 12 19 14 14 8 6 2 1 358 350 333 329 325 335 335 349 2 8 355 4 71 59 73
82 93 103 109 103 99 85 88 88 79 68 52 42 3 343 3 20 14 11 16 15 21 17 10 4 3 359 354 344 346 351 353 351 353 345 353 360 354 9 62 62 68 63
103 97 89 94 95 89 90 89 82 76 61 54 49 22 336 32 16 1 4 6 10 11 8 356 349 349 348 341 339 345 343 340 346 345 346 347 357 42 60 63 65 65 71
111 105 104 101 98 93 90 82 75 66 58 49 36 26 9 35 9 358 354 347 345 347 338 332 333 335 332 330 330 335 335 344 352 353 358 20 44 52 60 65 71 71 73
111 105 100 92 93 91 79 70 61 59 57 54 31 35 28 21 0 357 345 341 341 337 343 339 333 335 333 324 331 327 338 346 334 331 20 53 56 58 64 70 73 79 68
104 105 99 94 86 80 74 67 54 63 57 56 40 39 26 15 359 349 343 342 346 346 347 351 346 354 343 344 338 340 359 351 334 10 36 68 73 76 80 81 75 81 78
107 102 102 98 89 84 75 68 58 63 62 55 41 33 17 12 8 353 347 350 351 355 2 358 359 6 11 4 8 4 1 359 30 23 53 71 73 73 83 79 86 78 86
104 104 107 100 90 76 64 62 61 58 60 52 44 31 11 7 18 3 350 358 1 1 2 3 7 17 8 6 10 2 3 360 29 31 54 60 60 55 61 70 80 78 75